[[{"header":{"parameterUnit":"m.s-1","parameterCategory":1,"la1":30.2991,"la2":30.254,"lo1":-89.0895,"lo2":-89.0444,"dy":0.0017,"dx":0.0017,"nx":28,"ny":28,"refTime":"2024-08-23T21:00:00:Z","depth":0,"parameterNumber":2,"parameterNumberName":"U-component_of_WINDS"},"data":[0,0,0,0,0,0,0,0,0,0,0,0,0,0,0,0,0,0,0,0,0,0,0,0,0,0,0,0,0,0,0,0,0,0,0,0,0,0,0,0,0,0,0,0,0,0,0,0,0,0,0,0,0,0,0,0,0,0,-3.0553,-3.0556,0,-3.0814,-3.0817,-3.0819,-3.0844,-3.0841,-3.0838,-3.0835,-3.1109,-3.1118,-3.1128,0,0,0,0,0,0,0,0,0,0,0,0,0,-3.0082,-3.009,-3.0553,-3.0556,-3.0559,-3.0813,-3.0817,-3.082,-3.0844,-3.0841,-3.0837,-3.0834,-3.1105,-3.1117,-3.1129,0,0,0,0,0,0,0,0,0,0,0,0,0,-3.0309,-3.0093,-3.0552,-3.0602,-3.0609,-3.0812,-3.0817,-3.0821,-3.0845,-3.0841,-3.0836,-3.0833,-3.1101,-3.1116,-3.113,-3.1305,0,0,-3.1176,-3.1182,0,0,0,0,0,0,0,0,-3.0296,-3.0326,-3.0591,-3.0599,-3.0607,-3.0792,-3.0751,-3.0984,-3.0846,-3.0755,-3.0835,-3.083,-3.1007,-3.1029,-3.1087,-3.1317,-3.1329,-3.1177,-3.1186,-3.1192,-3.1196,0,0,0,0,0,0,0,-3.028,-3.0315,-3.0656,-3.0595,-3.0605,-3.0613,-3.064,-3.0795,-3.0901,-3.0763,-3.0765,-3.0795,-3.101,-3.1073,-3.1094,-3.1333,-3.1176,-3.119,-3.1199,-3.1204,-3.172,-3.1725,0,0,0,0,0,0,-3.0254,-3.0302,-3.0648,-3.0664,-3.0438,-3.0624,-3.0655,-3.0737,-3.09,-3.092,-3.0799,-3.0796,-3.105,-3.1077,-3.1104,-3.1319,-3.1192,-3.1206,-3.1214,-3.1715,-3.1721,-3.1726,0,0,0,0,0,0,-3.0244,-3.0285,-3.0637,-3.0484,-3.0529,-3.0637,-3.0728,-3.0744,-3.0807,-3.0927,-3.0946,-3.0843,-3.1048,-3.1083,-3.1254,-3.1329,-3.1213,-3.1226,-3.1709,-3.1717,-3.1724,-3.175,0,0,0,0,0,0,-3.023,-3.0281,-3.0347,-3.0485,-3.0537,-3.0782,-3.0733,-3.0752,-3.0831,-3.083,-3.0973,-3.0993,-3.1047,-3.1232,-3.1269,-3.1347,-3.1238,-3.1703,-3.1713,-3.1721,-3.1743,-3.1757,-3.177,0,0,0,0,0,-3.0214,-3.0346,-3.035,-3.0392,-3.0622,-3.0786,-3.0816,-3.0874,-3.0837,-3.0905,-3.0982,-3.0989,-3.1314,-3.1249,-3.1291,-3.1375,-3.1699,-3.171,-3.1721,-3.1737,-3.1755,-3.1769,0,0,0,0,0,0,-3.0217,-3.0365,-3.0372,-3.0552,-3.0656,-3.079,-3.0878,-3.089,-3.1009,-3.1003,-3.1071,-3.1103,-3.1272,-3.1341,-3.1266,-3.1552,-3.1503,-3.1523,-3.1501,-3.1519,-3.1532,-3.1512,-3.125,0,0,0,0,0,-3.0238,-3.0357,-3.0481,-3.0628,-3.0679,-3.0769,-3.0843,-3.0878,-3.099,-3.1035,-3.1124,-3.1234,-3.1361,-3.1444,-3.1567,-3.1753,-3.1785,-3.1831,-3.1844,-3.1854,-3.1871,-3.1975,-3.1997,-3.1762,-3.1762,-3.1762,0,0,-3.0284,-3.0379,-3.0451,-3.0631,-3.0716,-3.0839,-3.0807,-3.0939,-3.1032,-3.1056,-3.1222,-3.1292,-3.1419,-3.1598,-3.1681,-3.166,-3.1943,-3.1868,-3.1875,-3.1887,-3.1988,-3.201,-3.203,-3.1769,-3.1768,-3.1767,0,0,-3.0431,-3.0514,-3.0646,-3.0731,-3.0859,-3.0918,-3.0949,-3.1081,-3.1128,-3.1295,-3.1316,-3.1428,-3.1645,-3.1735,-3.1809,-3.1989,-3.1999,-3.2027,-3.2097,-3.2197,-3.2216,-3.2233,-3.2298,-3.232,-3.2043,-3.2043,-3.2043,0,-3.0472,-3.0657,-3.0713,-3.0844,-3.0923,-3.0948,-3.1083,-3.1163,-3.1326,-3.1381,-3.1354,-3.1627,-3.1714,-3.1914,-3.1958,-3.2017,-3.2056,-3.2012,-3.2208,-3.2226,-3.2242,-3.2305,-3.2329,-3.2046,-3.2046,-3.2045,-3.2045,0,-3.0703,-3.0831,-3.0922,-3.1076,-3.1165,-3.1298,-3.1375,-3.1459,-3.1486,-3.1548,-3.1719,-3.1824,-3.1969,-3.2019,-3.2048,-3.2225,-3.2208,-3.2194,-3.2146,-3.2266,-3.2327,-3.2351,-3.205,-3.2049,-3.2048,-3.2047,0,0,-3.0861,-3.1041,-3.1074,-3.1144,-3.1286,-3.1388,-3.1521,-3.1661,-3.1732,-3.1844,-3.1959,-3.2141,-3.2129,-3.2213,-3.2252,-3.234,-3.2477,-3.2316,-3.232,-3.2343,-3.2679,-3.2689,-3.2716,-3.2484,-3.2488,-3.2492,-3.2668,0,-3.1024,-3.1261,-3.1314,-3.1519,-3.1639,-3.1663,-3.178,-3.1881,-3.1942,-3.2054,-3.2123,-3.2251,-3.2225,-3.2276,-3.2364,-3.2441,-3.2545,-3.2429,-3.2594,-3.2599,-3.2562,-3.2747,-3.2758,-3.2919,-3.2692,-3.2696,-3.2699,0,-3.1247,-3.1361,-3.1576,-3.1702,-3.1754,-3.1858,-3.199,-3.2096,-3.2212,-3.225,-3.2343,-3.2373,-3.2515,-3.2459,-3.2657,-3.2577,-3.2647,-3.2695,-3.2703,-3.2722,-3.2657,-3.2772,-3.2972,-3.2996,-3.2737,-3.2734,-3.2731,0,-3.1342,-3.1548,-3.1704,-3.1763,-3.1914,-3.1986,-3.2053,-3.2163,-3.2244,-3.236,-3.2413,-3.2545,-3.2618,-3.2721,-3.2786,-3.2739,-3.2979,-3.2928,-3.3017,-3.3015,-3.3068,-3.3064,-3.3283,-3.3111,-3.3111,-3.311,-3.311,0,-3.152,-3.1651,-3.1748,-3.1844,-3.1993,-3.2053,-3.2199,-3.2266,-3.2364,-3.2475,-3.2504,-3.2608,-3.2687,-3.2803,-3.2855,-3.3011,-3.3044,-3.3081,-3.3093,-3.3079,-3.3074,-3.3127,-3.3118,-3.3117,-3.3115,-3.3114,-3.3113,0,-3.1651,-3.1721,-3.1892,-3.202,-3.2055,-3.2159,-3.2269,-3.2364,-3.2425,-3.2565,-3.2601,-3.2698,-3.2836,-3.291,-3.3083,-3.3118,-3.3294,-3.33,-3.3254,-3.3259,-3.3344,-3.3335,-3.3606,-3.3645,-3.3446,-3.3448,-3.3449,0,-3.176,-3.1861,-3.1999,-3.2073,-3.214,-3.2261,-3.2343,-3.2406,-3.249,-3.2628,-3.2707,-3.2846,-3.296,-3.3178,-3.3266,-3.3398,-3.3409,-3.3494,-3.3429,-3.3411,-3.3411,-3.3405,-3.3416,-3.3506,-3.3508,-3.3509,-3.3511,0,-3.1947,-3.1976,-3.2091,-3.2219,-3.2314,-3.2418,-3.2521,-3.2582,-3.2662,-3.2756,-3.2895,-3.2983,-3.3158,-3.3296,-3.3435,-3.3506,-3.3523,-3.353,-3.3558,-3.3545,-3.3514,-3.3533,-3.3286,-3.3524,-3.3523,-3.3522,-3.3521,-3.3521,-3.2072,-3.2163,-3.2273,-3.24,-3.2483,-3.2579,-3.2674,-3.2746,-3.2862,-3.3008,-3.3039,-3.3186,-3.33,-3.3487,-3.3562,-3.368,-3.3664,-3.3704,-3.3714,-3.3723,-3.3727,-3.3494,-3.3706,-3.3705,-3.3705,-3.3705,-3.3705,0,-3.2261,-3.2333,-3.2449,-3.259,-3.2691,-3.2694,-3.2808,-3.2893,-3.3021,-3.3124,-3.3234,-3.3395,-3.3528,-3.3625,-3.3762,-3.3837,-3.3849,-3.3871,-3.3867,-3.3884,-3.3733,-3.3696,-3.386,-3.386,-3.386,-3.386,-3.386,-3.386,-3.2372,-3.2525,-3.2567,-3.2763,-3.2835,-3.2977,-3.3042,-3.3131,-3.3213,-3.3389,-3.3499,-3.356,-3.3662,-3.3806,-3.3929,-3.3954,-3.4004,-3.4026,-3.4052,-3.3911,-3.3894,-3.3878,-3.3844,-3.4036,-3.4036,-3.4193,-3.4194,-3.4195]},{"header":{"parameterUnit":"m.s-1","parameterCategory":1,"la1":30.2991,"la2":30.254,"lo1":-89.0895,"lo2":-89.0444,"dy":0.0017,"dx":0.0017,"nx":28,"ny":28,"refTime":"2024-08-23T21:00:00:Z","depth":0,"parameterNumber":3,"parameterNumberName":"V-component_of_WINDS"},"data":[0,0,0,0,0,0,0,0,0,0,0,0,0,0,0,0,0,0,0,0,0,0,0,0,0,0,0,0,0,0,0,0,0,0,0,0,0,0,0,0,0,0,0,0,0,0,0,0,0,0,0,0,0,0,0,0,0,0,-0.7021,-0.7023,0,-0.7172,-0.7174,-0.7176,-0.7243,-0.7243,-0.7243,-0.7242,-0.7397,-0.7401,-0.7405,0,0,0,0,0,0,0,0,0,0,0,0,0,-0.6788,-0.6792,-0.7021,-0.7023,-0.7025,-0.7172,-0.7174,-0.7176,-0.7243,-0.7243,-0.7243,-0.7242,-0.7395,-0.74,-0.7406,0,0,0,0,0,0,0,0,0,0,0,0,0,-0.6909,-0.6794,-0.7021,-0.7076,-0.7082,-0.7172,-0.7174,-0.7177,-0.7243,-0.7243,-0.7243,-0.7242,-0.7394,-0.74,-0.7406,-0.7452,0,0,-0.7426,-0.7429,0,0,0,0,0,0,0,0,-0.6902,-0.6918,-0.7066,-0.7072,-0.708,-0.7189,-0.7149,-0.7269,-0.7243,-0.7182,-0.7242,-0.7242,-0.7328,-0.7339,-0.7368,-0.7459,-0.7465,-0.7426,-0.743,-0.7433,-0.7435,0,0,0,0,0,0,0,-0.6894,-0.6912,-0.7081,-0.7068,-0.7076,-0.7093,-0.7109,-0.7172,-0.7255,-0.7187,-0.7193,-0.721,-0.7331,-0.7362,-0.7373,-0.7468,-0.7426,-0.7432,-0.7436,-0.7438,-0.7602,-0.7602,0,0,0,0,0,0,-0.6877,-0.6904,-0.7076,-0.7085,-0.6989,-0.7097,-0.7116,-0.7154,-0.7254,-0.7269,-0.721,-0.7212,-0.7351,-0.7365,-0.7378,-0.7438,-0.7433,-0.7439,-0.7443,-0.7601,-0.7602,-0.7602,0,0,0,0,0,0,-0.6872,-0.6891,-0.707,-0.6996,-0.702,-0.7101,-0.7143,-0.7157,-0.7188,-0.7271,-0.7286,-0.7226,-0.7352,-0.7369,-0.7433,-0.7444,-0.7442,-0.7448,-0.7601,-0.7602,-0.7602,-0.7557,0,0,0,0,0,0,-0.6865,-0.6889,-0.6908,-0.6996,-0.7024,-0.7122,-0.7144,-0.716,-0.7199,-0.7204,-0.729,-0.7304,-0.7353,-0.7423,-0.7439,-0.7453,-0.7453,-0.76,-0.7601,-0.7602,-0.7558,-0.7556,-0.7555,0,0,0,0,0,-0.6856,-0.6889,-0.6908,-0.6929,-0.7049,-0.7123,-0.7139,-0.7194,-0.7199,-0.7219,-0.7272,-0.7302,-0.744,-0.7429,-0.7448,-0.7464,-0.76,-0.7601,-0.7602,-0.7559,-0.7556,-0.7555,0,0,0,0,0,0,-0.68,-0.6902,-0.6924,-0.6987,-0.7046,-0.7134,-0.716,-0.719,-0.7248,-0.725,-0.7315,-0.7334,-0.7392,-0.7434,-0.742,-0.7512,-0.7522,-0.7527,-0.7483,-0.7482,-0.748,-0.7469,-0.7458,0,0,0,0,0,-0.6795,-0.6847,-0.6933,-0.698,-0.7008,-0.7078,-0.7113,-0.715,-0.7213,-0.7239,-0.7296,-0.7356,-0.7413,-0.745,-0.7507,-0.7564,-0.7583,-0.7584,-0.7582,-0.758,-0.7584,-0.7617,-0.7618,-0.7606,-0.7606,-0.7606,0,0,-0.6785,-0.6847,-0.6876,-0.697,-0.702,-0.7072,-0.7099,-0.7153,-0.7192,-0.7247,-0.731,-0.7354,-0.7426,-0.7486,-0.7515,-0.7523,-0.7591,-0.7582,-0.758,-0.7585,-0.7618,-0.7619,-0.762,-0.7607,-0.7607,-0.7607,0,0,-0.6794,-0.6846,-0.6891,-0.694,-0.7015,-0.7061,-0.7072,-0.7155,-0.7187,-0.7251,-0.7293,-0.734,-0.7437,-0.7486,-0.7523,-0.7548,-0.7578,-0.7565,-0.7557,-0.7588,-0.7589,-0.759,-0.7599,-0.7601,-0.7568,-0.7568,-0.7568,0,-0.6773,-0.6853,-0.691,-0.6962,-0.7001,-0.7053,-0.7098,-0.7143,-0.7232,-0.7258,-0.7265,-0.7387,-0.7438,-0.751,-0.7516,-0.7545,-0.7558,-0.7556,-0.7584,-0.7586,-0.7587,-0.7597,-0.76,-0.7566,-0.7566,-0.7566,-0.7566,0,-0.6822,-0.6877,-0.6904,-0.6989,-0.7032,-0.7079,-0.7143,-0.7179,-0.7212,-0.7257,-0.7322,-0.7385,-0.7456,-0.7475,-0.7508,-0.7552,-0.7554,-0.7571,-0.7583,-0.7586,-0.7595,-0.7599,-0.7563,-0.7564,-0.7564,-0.7565,0,0,-0.6802,-0.6917,-0.6926,-0.6965,-0.705,-0.7093,-0.7143,-0.7211,-0.7241,-0.73,-0.7343,-0.7423,-0.7439,-0.7481,-0.752,-0.7547,-0.7562,-0.7561,-0.7564,-0.7559,-0.7614,-0.7601,-0.7604,-0.7582,-0.7583,-0.7583,-0.7608,0,-0.6823,-0.6915,-0.6967,-0.7037,-0.7088,-0.7136,-0.7179,-0.7236,-0.7279,-0.7328,-0.7375,-0.7431,-0.7448,-0.7474,-0.7502,-0.7554,-0.7574,-0.7553,-0.7622,-0.7624,-0.7604,-0.7609,-0.7596,-0.7616,-0.7612,-0.7613,-0.7613,0,-0.686,-0.6918,-0.6993,-0.7072,-0.7095,-0.7133,-0.7199,-0.7245,-0.731,-0.7339,-0.7385,-0.7423,-0.7477,-0.7483,-0.7557,-0.7542,-0.7573,-0.7602,-0.7604,-0.7614,-0.762,-0.7619,-0.7624,-0.7627,-0.762,-0.7619,-0.7619,0,-0.6838,-0.6935,-0.6992,-0.7024,-0.7117,-0.7142,-0.7182,-0.7246,-0.7284,-0.7341,-0.7366,-0.7429,-0.7464,-0.7511,-0.7565,-0.7565,-0.7634,-0.7645,-0.766,-0.7658,-0.7673,-0.7671,-0.7683,-0.7691,-0.7691,-0.7691,-0.7691,0,-0.6856,-0.69,-0.6983,-0.7018,-0.7069,-0.7127,-0.7175,-0.7219,-0.7275,-0.7319,-0.7364,-0.7405,-0.7473,-0.7521,-0.7563,-0.7618,-0.7633,-0.7658,-0.7669,-0.7655,-0.7652,-0.7677,-0.7677,-0.7692,-0.7692,-0.7692,-0.7692,0,-0.6841,-0.6898,-0.6964,-0.7046,-0.7067,-0.7101,-0.7171,-0.7206,-0.7251,-0.7306,-0.7322,-0.7392,-0.7452,-0.7509,-0.7589,-0.7617,-0.7672,-0.7686,-0.765,-0.7656,-0.7668,-0.7666,-0.7697,-0.7704,-0.7706,-0.7706,-0.7706,0,-0.6849,-0.6884,-0.6969,-0.7002,-0.7041,-0.7093,-0.7131,-0.719,-0.7228,-0.7303,-0.7329,-0.7391,-0.7445,-0.7537,-0.7595,-0.7656,-0.7672,-0.7678,-0.7681,-0.7665,-0.7672,-0.767,-0.7674,-0.7677,-0.7677,-0.7676,-0.7676,0,-0.6858,-0.6884,-0.6938,-0.7001,-0.7045,-0.7097,-0.7151,-0.7175,-0.7244,-0.7284,-0.7345,-0.7386,-0.7467,-0.7528,-0.7595,-0.7636,-0.7667,-0.7675,-0.7681,-0.7668,-0.7645,-0.7658,-0.7646,-0.7674,-0.7674,-0.7674,-0.7675,-0.7675,-0.6855,-0.6888,-0.6953,-0.7011,-0.7057,-0.7106,-0.7143,-0.7192,-0.7244,-0.7314,-0.7345,-0.7407,-0.7469,-0.7563,-0.7602,-0.7651,-0.7659,-0.7669,-0.7671,-0.7673,-0.767,-0.7637,-0.7663,-0.7663,-0.7664,-0.7664,-0.7664,0,-0.6866,-0.691,-0.6963,-0.7036,-0.7081,-0.7106,-0.7167,-0.7203,-0.7256,-0.7312,-0.7363,-0.7432,-0.7492,-0.7553,-0.7616,-0.7643,-0.7659,-0.7657,-0.7656,-0.7665,-0.7659,-0.7647,-0.7643,-0.7643,-0.7643,-0.7643,-0.7643,-0.7643,-0.6878,-0.6935,-0.6968,-0.7048,-0.7091,-0.7152,-0.7184,-0.7229,-0.7274,-0.7349,-0.7398,-0.7438,-0.7496,-0.7563,-0.7618,-0.7635,-0.7656,-0.765,-0.7671,-0.7664,-0.7666,-0.7667,-0.7656,-0.7654,-0.7654,-0.7673,-0.7674,-0.7674]}]]